TimeCST,TemperatureF,Dew PointF,Humidity,Sea Level PressureIn,VisibilityMPH,Wind Direction,Wind SpeedMPH,Gust SpeedMPH,PrecipitationIn,Events,Conditions,WindDirDegrees,DateUTC
12:15 AM,19.2,11.7,72,30.38,10.0,WSW,4.6,-,N/A,,Clear,250,2013-01-18 06:15:00
12:35 AM,18.1,11.7,76,30.40,10.0,SW,3.5,-,N/A,,Clear,230,2013-01-18 06:35:00
12:55 AM,18.5,12.4,77,30.42,10.0,WSW,6.9,-,N/A,,Clear,240,2013-01-18 06:55:00
1:15 AM,18.3,12.2,77,30.41,10.0,SW,5.8,-,N/A,,Clear,220,2013-01-18 07:15:00
1:35 AM,18.0,11.7,76,30.41,10.0,WSW,4.6,-,N/A,,Clear,240,2013-01-18 07:35:00
1:55 AM,18.9,12.0,75,30.42,10.0,SW,6.9,-,N/A,,Clear,230,2013-01-18 07:55:00
2:15 AM,18.7,12.0,75,30.43,10.0,SW,8.1,-,N/A,,Clear,230,2013-01-18 08:15:00
2:35 AM,18.9,12.2,75,30.42,10.0,SW,8.1,-,N/A,,Clear,230,2013-01-18 08:35:00
2:55 AM,19.2,12.4,75,30.42,10.0,SW,6.9,-,N/A,,Clear,230,2013-01-18 08:55:00
3:15 AM,18.7,12.6,77,30.42,10.0,SW,4.6,-,N/A,,Scattered Clouds,220,2013-01-18 09:15:00
3:35 AM,18.3,12.6,78,30.41,10.0,SW,5.8,-,N/A,,Scattered Clouds,230,2013-01-18 09:35:00
3:55 AM,18.3,12.7,79,30.40,10.0,SW,6.9,-,N/A,,Clear,220,2013-01-18 09:55:00
4:15 AM,18.7,13.1,79,30.41,10.0,SW,5.8,-,N/A,,Clear,230,2013-01-18 10:15:00
4:35 AM,18.5,13.5,81,30.42,10.0,SW,6.9,-,N/A,,Clear,220,2013-01-18 10:35:00
4:55 AM,18.3,13.8,83,30.42,10.0,SSW,5.8,-,N/A,,Clear,200,2013-01-18 10:55:00
5:15 AM,17.8,14.0,85,30.41,10.0,South,4.6,-,N/A,,Clear,190,2013-01-18 11:15:00
5:35 AM,17.1,14.0,88,30.41,10.0,SSW,5.8,-,N/A,,Clear,200,2013-01-18 11:35:00
5:55 AM,16.9,14.2,89,30.41,10.0,SSW,5.8,-,N/A,,Clear,210,2013-01-18 11:55:00
6:15 AM,17.6,14.7,88,30.41,10.0,South,4.6,-,N/A,,Scattered Clouds,180,2013-01-18 12:15:00
6:35 AM,18.1,15.3,88,30.42,10.0,SSW,5.8,-,N/A,,Scattered Clouds,200,2013-01-18 12:35:00
6:55 AM,18.3,15.4,89,30.41,10.0,SSW,5.8,-,N/A,,Clear,200,2013-01-18 12:55:00
7:15 AM,18.5,15.8,89,30.41,10.0,South,4.6,-,N/A,,Clear,190,2013-01-18 13:15:00
7:35 AM,19.2,16.5,89,30.40,10.0,South,5.8,-,N/A,,Clear,190,2013-01-18 13:35:00
7:55 AM,20.5,17.4,88,30.40,10.0,South,6.9,-,N/A,,Scattered Clouds,190,2013-01-18 13:55:00
8:15 AM,21.4,18.1,87,30.40,10.0,South,6.9,-,N/A,,Mostly Cloudy,190,2013-01-18 14:15:00
8:35 AM,22.6,18.9,85,30.40,10.0,South,6.9,-,N/A,,Mostly Cloudy,180,2013-01-18 14:35:00
8:55 AM,23.9,19.6,84,30.40,10.0,South,9.2,-,N/A,,Mostly Cloudy,170,2013-01-18 14:55:00
9:15 AM,25.2,20.1,81,30.40,10.0,South,9.2,-,N/A,,Scattered Clouds,190,2013-01-18 15:15:00
9:35 AM,26.6,20.8,79,30.39,10.0,South,11.5,-,N/A,,Clear,180,2013-01-18 15:35:00
9:55 AM,27.7,21.2,77,30.39,10.0,South,12.7,-,N/A,,Clear,180,2013-01-18 15:55:00
10:15 AM,29.1,21.6,73,30.38,10.0,South,15.0,-,N/A,,Clear,190,2013-01-18 16:15:00
10:35 AM,30.4,21.9,71,30.37,10.0,SSW,16.1,20.7,N/A,,Clear,200,2013-01-18 16:35:00
10:55 AM,31.3,22.3,69,30.35,10.0,South,16.1,20.7,N/A,,Clear,190,2013-01-18 16:55:00
11:15 AM,32.4,22.6,67,30.33,10.0,SSW,19.6,27.6,N/A,,Scattered Clouds,200,2013-01-18 17:15:00
11:55 AM,33.3,23.5,68,30.29,10.0,SSW,18.4,27.6,N/A,,Overcast,200,2013-01-18 17:55:00
12:15 PM,33.1,23.9,69,30.27,10.0,SSW,23.0,27.6,N/A,,Scattered Clouds,200,2013-01-18 18:15:00
12:35 PM,33.4,24.1,69,30.26,10.0,SSW,18.4,26.5,N/A,,Clear,200,2013-01-18 18:35:00
12:55 PM,34.7,24.6,67,30.24,10.0,SSW,23.0,29.9,N/A,,Clear,200,2013-01-18 18:55:00
1:15 PM,35.6,24.6,64,30.22,10.0,SSW,24.2,29.9,N/A,,Clear,200,2013-01-18 19:15:00
1:35 PM,36.3,24.6,63,30.21,10.0,SSW,21.9,31.1,N/A,,Clear,210,2013-01-18 19:35:00
2:15 PM,37.0,24.3,60,30.18,10.0,SSW,19.6,33.4,N/A,,Clear,200,2013-01-18 20:15:00
2:35 PM,37.0,23.4,58,30.17,10.0,SSW,25.3,31.1,N/A,,Clear,200,2013-01-18 20:35:00
2:55 PM,37.2,23.2,57,30.15,10.0,South,24.2,28.8,N/A,,Clear,190,2013-01-18 20:55:00
3:15 PM,37.4,23.0,56,30.14,10.0,SSW,15.0,27.6,N/A,,Clear,200,2013-01-18 21:15:00
3:35 PM,37.2,22.8,56,30.13,10.0,South,20.7,31.1,N/A,,Clear,190,2013-01-18 21:35:00
3:55 PM,36.9,22.5,56,30.11,10.0,SSW,18.4,29.9,N/A,,Clear,200,2013-01-18 21:55:00
4:15 PM,36.7,22.6,57,30.10,10.0,SSW,21.9,27.6,N/A,,Clear,200,2013-01-18 22:15:00
4:35 PM,36.3,22.5,57,30.09,10.0,South,24.2,31.1,N/A,,Clear,190,2013-01-18 22:35:00
4:55 PM,36.0,22.5,58,30.08,10.0,South,18.4,25.3,N/A,,Clear,190,2013-01-18 22:55:00
5:15 PM,35.6,22.5,59,30.07,10.0,South,21.9,27.6,N/A,,Clear,190,2013-01-18 23:15:00
5:35 PM,35.6,22.3,58,30.05,10.0,South,24.2,28.8,N/A,,Clear,190,2013-01-18 23:35:00
5:55 PM,35.6,22.6,59,30.04,10.0,South,23.0,36.8,N/A,,Clear,190,2013-01-18 23:55:00
6:15 PM,35.6,22.6,59,30.04,10.0,SSW,23.0,31.1,N/A,,Clear,200,2013-01-19 00:15:00
6:35 PM,35.6,22.6,59,30.04,10.0,SSW,24.2,31.1,N/A,,Clear,200,2013-01-19 00:35:00
6:55 PM,36.0,22.8,59,30.04,10.0,SSW,24.2,32.2,N/A,,Clear,210,2013-01-19 00:55:00
7:15 PM,36.0,23.2,60,30.05,10.0,SSW,20.7,29.9,N/A,,Clear,210,2013-01-19 01:15:00
7:35 PM,35.8,23.7,62,30.05,10.0,SSW,17.3,26.5,N/A,,Clear,210,2013-01-19 01:35:00
7:55 PM,36.0,24.1,62,30.04,10.0,SSW,20.7,26.5,N/A,,Clear,210,2013-01-19 01:55:00
8:15 PM,36.3,24.6,63,30.04,10.0,SSW,20.7,26.5,N/A,,Clear,210,2013-01-19 02:15:00
8:55 PM,36.5,25.3,64,30.03,10.0,SSW,18.4,27.6,N/A,,Clear,210,2013-01-19 02:55:00
9:15 PM,36.0,25.7,66,30.03,10.0,SSW,16.1,-,N/A,,Clear,210,2013-01-19 03:15:00
9:35 PM,35.8,25.7,67,30.03,10.0,SW,15.0,21.9,N/A,,Clear,220,2013-01-19 03:35:00
9:55 PM,35.8,25.7,67,30.02,10.0,SSW,15.0,-,N/A,,Clear,210,2013-01-19 03:55:00
10:15 PM,35.8,26.1,68,30.02,10.0,SSW,15.0,21.9,N/A,,Clear,210,2013-01-19 04:15:00
10:35 PM,36.5,25.9,65,30.01,10.0,SSW,13.8,-,N/A,,Clear,210,2013-01-19 04:35:00
10:55 PM,37.0,25.7,64,30.01,10.0,SSW,19.6,25.3,N/A,,Clear,210,2013-01-19 04:55:00
11:15 PM,37.4,25.7,63,30.01,10.0,SW,18.4,27.6,N/A,,Clear,220,2013-01-19 05:15:00
11:35 PM,37.2,26.1,64,30.00,10.0,SW,17.3,25.3,N/A,,Clear,220,2013-01-19 05:35:00
11:55 PM,37.2,26.2,65,30.00,10.0,SW,18.4,21.9,N/A,,Clear,220,2013-01-19 05:55:00